Theta_e
306 307 307 307 309 310 309 308 306 305 304 305 305 305 305 305 306 309 309 311 308 308 314 314 314 315 313 312 314 314 310 310 314 316 315 315 313 316 316 315 314 316 316 316 351
306 306 307 307 308 310 309 307 306 305 305 305 305 305 305 306 307 315 309 314 308 308 308 312 314 315 314 313 310 308 306 310 310 313 312 313 312 314 314 314 314 315 316 316 329
305 306 308 308 309 310 308 307 306 305 305 305 305 305 306 306 310 315 316 311 308 309 310 312 314 314 313 312 310 307 307 308 310 311 312 312 312 313 312 311 314 315 315 315 316
305 306 307 308 309 309 308 307 306 306 307 308 308 307 307 306 308 314 314 311 311 312 313 312 314 313 310 310 312 311 311 311 312 313 312 309 312 311 313 313 314 315 315 315 315
305 307 307 308 309 308 307 307 307 309 310 309 310 310 308 307 308 309 313 313 312 313 313 314 313 313 311 310 311 310 311 312 313 313 312 313 310 312 311 313 313 314 314 314 315
305 307 308 308 308 308 307 307 311 311 311 310 313 314 311 307 314 313 313 313 312 313 313 313 313 313 312 312 311 312 312 312 313 312 312 310 311 312 313 314 313 313 314 314 313
305 306 308 308 308 307 308 310 313 312 312 313 314 315 311 311 314 313 313 313 312 312 313 313 313 313 313 311 313 314 312 310 310 312 310 311 310 311 314 313 313 312 313 314 314
305 306 307 310 311 311 314 313 312 313 313 312 314 315 315 314 314 313 313 313 313 313 312 312 312 313 314 313 313 312 310 310 309 310 312 311 311 311 316 313 314 314 314 314 315
305 305 307 310 313 313 314 313 311 311 313 312 315 314 315 315 313 313 313 313 313 312 313 312 312 312 313 312 310 310 312 311 311 313 313 312 314 313 316 313 312 313 314 315 315
307 306 306 308 314 314 314 312 310 313 313 311 314 312 313 312 313 312 313 312 312 312 312 312 311 309 307 310 312 312 311 311 314 315 315 315 315 314 315 312 312 313 314 315 315
308 307 306 307 312 314 314 309 310 310 309 310 310 310 312 313 313 312 312 312 312 312 310 310 309 309 308 309 311 312 313 314 314 314 315 316 315 314 314 312 310 313 313 314 315
310 307 307 308 310 312 309 309 310 309 309 310 311 311 312 312 312 312 312 312 311 310 309 309 309 310 310 310 310 311 313 313 314 315 315 315 315 314 313 312 313 313 314 314 315
311 308 308 308 313 311 309 309 309 313 309 311 314 314 313 312 313 312 312 312 310 310 309 309 310 311 311 312 313 312 313 314 315 315 315 314 315 314 314 312 313 314 315 314 315
312 309 309 309 311 309 309 309 309 313 310 314 314 312 312 311 311 313 314 312 311 310 309 310 311 312 313 313 313 314 313 314 316 316 317 314 318 315 314 313 312 314 314 314 314
313 309 310 310 310 310 311 314 313 314 310 314 310 310 313 312 313 313 313 313 313 312 313 313 313 312 313 314 314 315 314 314 314 314 314 315 315 314 313 313 313 312 313 315 315
314 311 311 310 310 311 313 315 315 313 313 310 309 309 310 311 313 313 312 312 313 312 312 312 313 313 314 314 315 316 316 314 313 312 319 315 315 315 313 313 312 310 313 314 314
313 312 313 312 311 310 312 315 313 309 310 310 309 309 309 311 310 313 312 310 315 315 315 314 315 315 313 313 312 314 316 319 317 317 318 314 315 315 313 312 311 310 313 314 315
314 314 315 312 312 311 312 308 313 310 310 309 310 309 310 310 310 312 311 310 315 316 314 314 313 315 314 313 313 313 315 317 320 318 314 314 314 313 313 313 313 313 314 315 315
314 315 313 313 313 312 312 307 308 310 310 310 309 310 310 310 311 310 310 311 316 314 313 315 315 313 312 311 312 314 316 316 318 316 317 314 314 314 313 313 314 315 316 317 317
314 314 312 311 312 312 307 310 309 311 312 311 310 310 310 309 310 309 311 312 316 313 311 312 315 313 312 311 311 312 313 317 319 320 318 315 316 316 316 316 316 315 314 316 317
314 315 313 313 312 311 307 307 309 312 312 311 311 310 310 309 309 309 312 312 314 313 311 311 313 313 312 313 311 312 315 316 317 318 318 317 313 311 315 315 316 314 315 316 316
312 308 313 311 307 305 307 310 312 312 311 310 309 309 308 308 309 311 312 312 313 313 313 310 314 313 312 311 311 311 312 313 317 314 317 318 316 313 315 317 314 315 317 317 316
311 311 312 310 303 304 307 310 311 312 310 307 307 308 307 309 306 311 312 311 312 312 313 312 313 314 312 309 313 314 315 315 315 314 316 316 314 315 315 315 314 314 315 317 317
311 307 310 309 308 307 307 308 311 310 309 308 306 307 308 309 308 309 311 311 312 311 312 312 312 315 316 316 314 314 313 313 313 315 313 313 313 312 313 313 313 313 313 315 317
310 307 309 305 306 306 307 308 309 309 308 308 306 308 309 308 308 308 309 309 309 310 311 313 314 313 313 313 313 313 313 313 315 315 317 315 315 313 313 313 315 315 313 316 318
311 308 308 308 308 307 306 306 308 309 307 307 307 309 308 308 307 309 309 308 308 312 313 310 313 313 315 314 314 314 313 314 313 316 316 318 316 314 313 312 312 314 317 319 317
313 308 307 307 306 307 305 308 307 308 307 307 306 307 308 308 310 309 308 308 310 310 308 307 309 310 312 313 311 315 314 311 310 311 313 319 314 311 312 311 311 311 311 314 320
Wind_Speed
24 23 22 22 21 20 18 15 12 10 9 8 8 10 12 14 13 11 4 5 5 4 5 7 8 4 1 2 5 2 3 1 3 4 5 23 6 15 11 13 19 10 14 24 19
27 25 25 23 21 19 17 14 11 10 10 10 10 12 14 16 13 8 5 8 6 7 6 6 5 6 1 1 3 4 3 5 7 5 7 15 13 27 10 16 5 19 20 21 16
29 27 27 24 20 17 14 12 10 10 10 11 12 13 14 13 4 5 9 7 7 7 8 5 7 5 1 1 1 2 4 5 8 15 14 9 13 20 6 7 10 15 18 19 19
30 28 26 23 19 16 12 10 9 10 10 12 13 13 11 7 3 6 5 4 3 4 6 3 7 4 4 4 8 3 5 5 12 15 14 7 15 11 8 12 13 11 15 16 15
32 31 27 21 17 13 9 8 8 9 11 11 13 12 8 3 3 3 3 5 7 6 1 5 9 5 3 5 8 2 3 12 17 19 19 17 10 14 9 15 14 17 17 17 16
33 31 27 21 16 11 8 7 7 10 10 11 13 11 6 3 8 7 5 5 4 4 3 6 3 5 1 4 1 6 11 13 15 21 12 5 11 15 17 18 21 21 23 25 23
34 31 25 18 15 11 9 7 9 10 8 11 11 11 7 5 5 2 3 2 3 3 4 5 9 6 4 5 4 11 8 9 7 8 7 11 8 7 27 28 28 14 26 27 25
34 30 23 15 13 10 9 9 12 9 6 12 8 6 3 4 6 9 9 7 5 10 13 10 11 12 5 5 6 5 3 4 6 7 7 5 8 15 27 31 30 31 28 28 27
34 30 21 12 10 9 9 11 16 7 4 13 4 6 1 3 7 4 7 7 6 6 11 13 9 7 2 1 5 4 5 6 6 1 5 1 12 13 34 27 23 22 15 21 23
35 31 20 9 5 6 9 12 18 4 4 8 4 5 2 7 10 9 7 7 9 8 11 6 0 2 3 3 7 10 5 6 8 7 10 10 15 16 24 20 22 27 24 24 26
39 32 18 7 4 6 9 13 14 3 18 9 15 11 14 10 15 8 8 13 18 11 5 6 2 7 12 10 14 12 11 11 12 10 6 13 16 18 16 19 18 25 21 25 30
41 29 15 8 4 5 11 16 10 7 10 14 7 14 13 14 12 15 12 9 7 7 2 2 7 15 11 9 8 11 13 14 9 9 6 14 18 18 13 12 24 26 26 25 27
41 23 12 8 4 7 9 12 12 9 2 9 3 5 8 11 8 15 15 19 7 4 7 8 9 3 7 5 7 7 6 10 13 17 12 10 16 11 8 10 20 28 31 26 26
39 17 16 7 2 8 8 14 9 6 4 6 5 6 17 11 5 8 18 4 3 7 6 6 6 4 7 8 7 15 10 12 11 8 11 4 19 15 8 14 13 27 33 35 34
36 11 14 14 7 9 11 9 4 3 4 5 3 6 12 11 12 14 19 12 2 5 2 9 4 8 8 12 12 13 13 14 12 11 13 3 7 2 4 12 14 13 30 37 35
35 5 15 13 12 13 14 11 1 5 1 6 4 7 7 8 7 11 13 11 5 4 4 5 10 5 5 3 1 7 5 4 0 2 12 11 11 12 8 13 9 7 25 35 37
32 1 12 16 14 16 19 2 5 4 6 6 4 7 5 5 10 4 5 6 1 6 4 6 4 1 4 4 6 7 5 4 3 1 8 7 11 19 7 7 7 9 19 31 31
28 5 7 13 16 17 20 5 6 2 3 6 5 7 3 5 4 5 7 4 1 0 2 3 6 5 7 6 6 7 6 3 6 4 5 5 6 6 14 18 18 17 23 26 28
26 5 13 13 17 15 10 5 4 2 4 5 6 3 4 3 3 5 4 4 5 3 0 4 6 14 19 20 3 2 4 5 5 6 8 5 6 6 10 10 4 3 4 12 22
25 8 10 15 14 6 5 3 3 4 6 4 3 2 4 4 3 4 3 3 4 6 5 4 11 9 7 5 10 9 5 3 4 4 5 4 4 6 4 1 3 4 7 18 23
22 2 8 20 3 4 3 5 5 13 14 3 3 5 6 5 4 3 6 7 5 5 6 3 5 5 6 6 5 1 2 2 3 3 3 4 4 5 6 4 5 7 12 18 23
16 4 13 15 7 3 1 3 8 6 14 5 3 4 5 4 5 6 8 8 8 5 4 7 4 6 16 18 10 9 11 5 4 4 4 3 11 9 4 5 5 9 21 28 27
20 6 12 12 3 4 7 6 4 6 5 5 4 5 4 4 5 4 6 7 10 6 3 4 3 5 8 5 2 2 4 8 8 6 12 8 6 2 7 8 15 14 26 28 30
9 4 7 7 4 3 4 5 4 9 6 14 7 6 6 4 5 8 14 4 3 14 23 9 7 11 12 12 7 9 12 14 8 4 10 17 23 15 17 19 14 23 26 31 28
8 3 2 4 4 10 3 3 4 5 4 12 4 7 7 5 5 6 5 13 10 12 1 6 5 7 12 18 20 21 20 18 16 17 11 19 17 16 9 11 19 31 27 21 22
7 5 6 13 13 4 3 3 2 4 4 5 4 11 9 6 8 19 16 12 6 3 1 2 3 3 6 18 17 20 13 10 14 12 10 14 19 8 10 16 19 23 22 16 25
8 5 4 6 4 2 4 3 8 13 11 8 10 6 7 11 22 33 32 25 12 4 2 1 2 3 5 7 10 6 6 5 13 13 10 7 5 12 13 15 16 26 29 29 29
Wind_Direction
9 6 1 355 351 349 348 347 348 345 341 336 338 343 340 343 343 332 298 148 63 58 31 37 49 36 269 214 199 215 38 301 280 9 284 309 325 307 308 294 328 328 338 345 333
7 5 360 355 352 351 351 353 356 353 348 343 343 345 343 344 352 26 130 140 63 45 34 20 13 11 185 242 179 125 132 232 203 219 255 279 284 294 298 307 302 317 324 342 346
6 3 358 354 354 357 358 1 2 359 352 344 343 341 338 342 30 67 101 101 66 57 30 1 10 22 358 318 315 139 199 240 275 295 307 284 298 305 296 296 297 310 326 335 340
5 2 359 357 358 2 4 3 8 4 353 345 346 340 338 343 118 113 84 85 17 5 350 334 22 9 40 358 345 287 272 326 315 322 322 297 306 303 265 276 304 313 327 329 329
4 1 359 1 5 10 11 12 10 7 352 352 351 349 359 351 55 159 105 25 342 330 13 21 45 24 17 316 346 189 318 317 311 307 313 302 275 282 250 290 304 305 306 308 312
4 1 -0 2 7 14 16 12 15 1 354 352 354 356 9 55 87 111 105 41 38 53 32 347 333 352 159 308 9 300 295 303 310 304 293 266 288 303 285 300 301 305 302 296 300
4 1 359 2 6 11 11 17 1 355 3 355 359 10 62 81 137 146 197 219 283 281 315 336 304 304 314 311 281 294 307 321 325 305 303 328 313 275 299 304 304 296 298 299 300
4 0 358 1 6 14 20 12 351 336 335 353 351 14 99 144 218 277 260 250 259 267 264 318 299 287 248 271 317 340 20 350 289 324 285 338 287 299 311 306 297 298 294 295 298
0 359 354 358 9 17 13 357 344 334 299 345 341 354 186 313 329 323 260 264 239 271 267 282 275 238 184 115 330 344 251 276 307 259 280 64 291 283 302 293 287 284 284 301 306
355 355 350 346 7 13 1 347 351 354 310 338 339 329 285 318 325 298 243 258 243 293 269 269 107 72 35 107 264 273 247 245 274 281 297 301 279 279 291 294 278 279 278 282 287
353 352 349 342 331 357 11 354 4 351 324 289 296 283 285 317 305 264 281 241 235 254 237 288 47 256 248 227 253 274 270 259 271 272 294 283 269 279 289 296 281 281 278 284 286
354 354 357 353 6 44 36 33 14 326 304 319 297 272 296 300 298 315 265 217 202 222 153 355 242 253 265 271 248 256 263 273 277 270 263 276 275 279 274 265 272 277 280 280 289
354 2 12 356 90 40 23 16 357 327 312 301 303 296 2 311 254 287 303 246 196 242 237 218 246 255 265 263 295 284 239 260 266 283 276 276 275 265 286 245 268 276 278 279 278
355 3 20 22 77 3 8 344 334 335 52 316 6 29 342 337 275 329 4 260 193 225 239 225 253 206 293 283 258 276 256 264 265 263 272 140 291 271 263 260 243 260 267 270 271
356 6 19 38 33 7 351 357 349 345 53 310 19 352 23 23 325 358 8 7 357 279 243 264 273 289 279 267 285 280 272 254 255 264 280 206 271 186 197 264 254 247 258 266 271
353 24 32 29 23 11 353 343 298 43 323 346 4 328 3 8 353 343 7 10 295 335 340 263 263 227 242 312 62 333 332 299 102 166 260 241 225 264 249 250 271 234 254 269 277
354 359 35 25 11 0 348 22 42 80 346 331 303 327 312 356 340 352 351 7 21 353 320 312 285 307 43 0 329 30 37 326 307 226 261 208 227 243 259 239 226 250 271 277 279
356 1 17 8 359 354 346 54 69 254 226 257 269 304 295 350 278 320 332 295 263 171 285 329 327 14 2 302 253 283 170 194 281 255 273 333 253 255 231 252 261 263 275 283 286
358 62 39 7 339 338 338 51 200 305 288 283 317 267 275 305 275 354 271 256 198 194 178 309 264 310 293 293 186 204 195 184 250 242 268 222 271 295 261 260 234 277 319 320 320
357 93 25 356 347 331 69 241 246 273 310 275 255 248 280 281 290 323 293 238 193 195 174 246 287 276 295 326 266 195 184 214 204 249 251 275 249 242 255 247 3 324 323 329 325
358 333 346 340 360 36 121 232 283 312 334 279 251 258 244 273 249 243 259 283 191 214 188 190 227 283 327 216 232 7 250 227 242 233 255 289 251 233 245 199 251 277 301 311 304
353 340 340 350 38 24 344 298 309 304 332 288 310 243 245 265 250 249 229 221 236 191 206 203 227 265 275 271 283 268 252 236 243 228 231 282 266 274 209 278 314 304 299 307 300
340 312 346 5 57 331 321 307 267 316 306 352 293 252 273 286 331 225 248 262 292 180 217 177 225 303 311 352 30 228 190 216 234 250 240 251 258 107 302 314 309 303 291 290 290
348 354 338 28 61 96 325 276 304 310 294 342 287 339 343 292 220 280 292 304 198 259 266 198 252 238 256 267 273 279 270 273 244 244 262 241 269 268 285 298 302 293 283 281 274
1 350 16 308 328 325 234 268 303 344 298 337 323 339 306 286 269 254 251 294 282 287 302 184 257 215 246 261 267 268 275 280 271 261 257 272 266 262 260 294 300 291 286 279 279
1 350 323 294 295 305 283 276 307 315 271 283 302 301 292 251 225 296 302 302 259 290 260 40 280 297 272 261 262 269 264 277 274 288 302 284 269 296 328 328 317 318 312 293 284
329 312 275 275 310 344 251 274 313 312 285 267 315 287 285 266 292 290 283 271 242 217 118 151 269 279 268 333 308 254 166 310 312 295 306 291 309 315 315 309 301 295 286 280 279